VLG6LX LEBL-GCXO

Flight info

Callsign VLG6LX
Flight time 3h 4m
Altitude 35000
Route LOTOS4P LOTOS DCT TORDU DCT DIKUT DCT SOPET DCT VLC DCT SERRA DCT ASTRO DCT POBOS DCT XEBAR DCT YES DCT BLN DCT KUKAL DCT ALCOL DCT VULPE DCT AMOTA DCT SVL DCT PIMUR DCT ONUBA DCT NAPES DCT OSLEP DCT MINTA DCT BAROK UN873 SAMAR SAMAR1L
Aircraft A320/M-SDE3FGHIRWY/LB1

Departure

Time 2026-04-27 03:59
Airport Josep Tarradellas Barcelona-El Prat Airport (LEBL)

Arrival

Time 2026-04-27 07:03
Airport Tenerife Norte-Ciudad de La Laguna Airport (GCXO)
Time Latitude Longitude Altitude Speed Heading
2026-04-27 03:28 41.29150 2.07945 19 ft 0 kts 155°
2026-04-27 03:44 41.29157 2.07940 19 ft 3 kts 155°
2026-04-27 03:45 41.29179 2.07927 20 ft 3 kts 156°
2026-04-27 03:45 41.29197 2.07917 21 ft 3 kts 156°
2026-04-27 03:45 41.29216 2.07905 22 ft 3 kts 128°
2026-04-27 03:45 41.29218 2.07884 22 ft 3 kts 68°
2026-04-27 03:46 41.29209 2.07856 19 ft 3 kts 65°
2026-04-27 03:46 41.29206 2.07848 21 ft 0 kts 66°
2026-04-27 03:48 41.29207 2.07850 21 ft 1 kts 66°
2026-04-27 03:48 41.29213 2.07867 19 ft 3 kts 65°
2026-04-27 03:48 41.29224 2.07901 22 ft 5 kts 66°
2026-04-27 03:48 41.29238 2.07939 20 ft 5 kts 65°
2026-04-27 03:49 41.29256 2.07993 20 ft 7 kts 65°
2026-04-27 03:49 41.29280 2.08063 19 ft 9 kts 66°
2026-04-27 03:49 41.29310 2.08151 20 ft 11 kts 65°
2026-04-27 03:49 41.29346 2.08255 19 ft 13 kts 66°
2026-04-27 03:50 41.29391 2.08344 18 ft 10 kts 21°
2026-04-27 03:50 41.29460 2.08320 17 ft 11 kts 335°
2026-04-27 03:50 41.29536 2.08275 16 ft 13 kts 336°
2026-04-27 03:50 41.29585 2.08339 17 ft 11 kts 73°
2026-04-27 03:51 41.29603 2.08398 17 ft 9 kts 65°
2026-04-27 03:51 41.29629 2.08473 18 ft 12 kts 66°
2026-04-27 03:51 41.29664 2.08576 17 ft 12 kts 65°
2026-04-27 03:51 41.29708 2.08706 17 ft 10 kts 66°
2026-04-27 03:52 41.29739 2.08799 17 ft 14 kts 65°
2026-04-27 03:52 41.29771 2.08893 18 ft 19 kts 66°
2026-04-27 03:52 41.29833 2.09069 17 ft 23 kts 65°
2026-04-27 03:52 41.29902 2.09274 16 ft 26 kts 66°
2026-04-27 03:53 41.29977 2.09493 17 ft 27 kts 66°
2026-04-27 03:53 41.30049 2.09702 17 ft 19 kts 65°
2026-04-27 03:53 41.30090 2.09822 16 ft 14 kts 66°
2026-04-27 03:53 41.30130 2.09940 17 ft 15 kts 66°
2026-04-27 03:54 41.30174 2.10070 17 ft 16 kts 65°
2026-04-27 03:54 41.30222 2.10210 15 ft 16 kts 65°
2026-04-27 03:54 41.30262 2.10325 17 ft 11 kts 64°
2026-04-27 03:54 41.30292 2.10413 16 ft 8 kts 66°
2026-04-27 03:55 41.30317 2.10487 16 ft 9 kts 64°
2026-04-27 03:55 41.30375 2.10510 19 ft 10 kts 347°
2026-04-27 03:55 41.30441 2.10473 17 ft 10 kts 335°
2026-04-27 03:55 41.30507 2.10434 16 ft 9 kts 336°
2026-04-27 03:56 41.30559 2.10402 17 ft 6 kts 336°
2026-04-27 03:56 41.30567 2.10359 17 ft 4 kts 247°
2026-04-27 03:56 41.30566 2.10357 17 ft 0 kts 246°
2026-04-27 03:58 41.30535 2.10268 17 ft 39 kts 245°
2026-04-27 03:58 41.30331 2.09671 18 ft 100 kts 245°
2026-04-27 03:58 41.29974 2.08626 24 ft 146 kts 245°
2026-04-27 03:59 41.29501 2.07251 161 ft 171 kts 244°
2026-04-27 03:59 41.29023 2.05848 831 ft 167 kts 245°
2026-04-27 03:59 41.28540 2.04444 1464 ft 166 kts 246°
2026-04-27 03:59 41.28058 2.03048 2096 ft 166 kts 246°
2026-04-27 04:00 41.27577 2.01650 2668 ft 166 kts 245°
2026-04-27 04:00 41.27095 2.00250 3211 ft 167 kts 245°
2026-04-27 04:00 41.26610 1.98838 3734 ft 171 kts 244°
2026-04-27 04:00 41.25852 1.97561 3953 ft 188 kts 211°
2026-04-27 04:01 41.24621 1.96744 4131 ft 209 kts 210°
2026-04-27 04:01 41.23338 1.95668 4283 ft 233 kts 213°
2026-04-27 04:01 41.21936 1.94387 4559 ft 257 kts 214°
2026-04-27 04:01 41.20429 1.92969 5085 ft 271 kts 214°
2026-04-27 04:02 41.18883 1.91497 5811 ft 276 kts 215°
2026-04-27 04:02 41.17314 1.90003 6596 ft 279 kts 215°
2026-04-27 04:02 41.15724 1.88498 7317 ft 283 kts 215°
2026-04-27 04:02 41.14113 1.86974 8042 ft 286 kts 215°
2026-04-27 04:03 41.12482 1.85426 8767 ft 290 kts 216°
2026-04-27 04:03 41.10830 1.83857 9465 ft 294 kts 216°
2026-04-27 04:03 41.09313 1.82028 10162 ft 297 kts 231°
2026-04-27 04:03 41.08060 1.79783 10507 ft 313 kts 235°
2026-04-27 04:04 41.06710 1.77388 10642 ft 335 kts 231°
2026-04-27 04:04 41.05186 1.74977 11038 ft 346 kts 230°
2026-04-27 04:04 41.03592 1.72567 11624 ft 349 kts 229°
2026-04-27 04:04 41.01966 1.70152 12244 ft 352 kts 229°
2026-04-27 04:05 41.00322 1.67730 12861 ft 355 kts 229°
2026-04-27 04:05 40.98667 1.65282 13462 ft 358 kts 229°
2026-04-27 04:05 40.97006 1.62811 14052 ft 361 kts 229°
2026-04-27 04:05 40.95359 1.60351 14585 ft 363 kts 229°
2026-04-27 04:06 40.93684 1.57838 15126 ft 365 kts 230°
2026-04-27 04:06 40.91999 1.55313 15661 ft 367 kts 229°
2026-04-27 04:06 40.90308 1.52778 16191 ft 369 kts 229°
2026-04-27 04:07 40.86887 1.47658 17227 ft 374 kts 229°
2026-04-27 04:07 40.85159 1.45067 17749 ft 376 kts 229°
2026-04-27 04:07 40.83424 1.42472 18266 ft 379 kts 229°
2026-04-27 04:07 40.81673 1.39860 18743 ft 381 kts 229°
2026-04-27 04:08 40.79906 1.37231 19209 ft 383 kts 229°
2026-04-27 04:08 40.78130 1.34590 19657 ft 386 kts 229°
2026-04-27 04:08 40.76341 1.31924 20111 ft 389 kts 229°
2026-04-27 04:08 40.74541 1.29245 20549 ft 392 kts 229°
2026-04-27 04:09 40.72728 1.26543 20968 ft 395 kts 229°
2026-04-27 04:09 40.70904 1.23823 21391 ft 397 kts 229°
2026-04-27 04:09 40.69064 1.21094 21808 ft 400 kts 229°
2026-04-27 04:09 40.67211 1.18350 22221 ft 402 kts 229°
2026-04-27 04:10 40.65343 1.15586 22615 ft 405 kts 229°
2026-04-27 04:10 40.63461 1.12810 23014 ft 407 kts 229°
2026-04-27 04:10 40.61600 1.10059 23408 ft 409 kts 229°
2026-04-27 04:10 40.59700 1.07250 23790 ft 412 kts 229°
2026-04-27 04:11 40.57784 1.04433 24120 ft 414 kts 229°
2026-04-27 04:11 40.55854 1.01607 24460 ft 416 kts 229°
2026-04-27 04:11 40.53917 0.98773 24800 ft 418 kts 229°
2026-04-27 04:11 40.51950 0.95939 25144 ft 420 kts 228°
2026-04-27 04:12 40.49972 0.93117 25471 ft 421 kts 228°
2026-04-27 04:12 40.47978 0.90286 25812 ft 423 kts 228°
2026-04-27 04:12 40.45976 0.87446 26129 ft 425 kts 228°
2026-04-27 04:12 40.43961 0.84589 26443 ft 427 kts 228°
2026-04-27 04:13 40.41938 0.81726 26754 ft 429 kts 228°
2026-04-27 04:13 40.39909 0.78844 27072 ft 431 kts 228°
2026-04-27 04:13 40.37879 0.75952 27375 ft 432 kts 228°
2026-04-27 04:13 40.35840 0.73038 27710 ft 434 kts 228°
2026-04-27 04:14 40.33799 0.70121 28035 ft 435 kts 228°
2026-04-27 04:14 40.31741 0.67194 28356 ft 437 kts 228°
2026-04-27 04:14 40.29667 0.64268 28668 ft 439 kts 228°
2026-04-27 04:14 40.27581 0.61334 29027 ft 440 kts 228°
2026-04-27 04:15 40.25503 0.58410 29486 ft 438 kts 228°
2026-04-27 04:15 40.23423 0.55485 29883 ft 438 kts 228°
2026-04-27 04:15 40.21353 0.52568 30275 ft 438 kts 228°
2026-04-27 04:15 40.19282 0.49647 30638 ft 437 kts 228°
2026-04-27 04:16 40.17212 0.46739 31035 ft 436 kts 228°
2026-04-27 04:16 40.15145 0.43839 31435 ft 434 kts 228°
2026-04-27 04:16 40.13121 0.40998 31828 ft 433 kts 228°
2026-04-27 04:16 40.11073 0.38121 32229 ft 432 kts 228°
2026-04-27 04:17 40.09032 0.35252 32628 ft 430 kts 228°
2026-04-27 04:17 40.06991 0.32397 33014 ft 429 kts 228°
2026-04-27 04:17 40.04957 0.29564 33409 ft 428 kts 228°
2026-04-27 04:17 40.02926 0.26733 33788 ft 426 kts 228°
2026-04-27 04:18 40.00899 0.23913 34153 ft 425 kts 228°
2026-04-27 04:18 39.98880 0.21099 34450 ft 424 kts 228°
2026-04-27 04:18 39.96867 0.18283 34735 ft 424 kts 228°
2026-04-27 04:18 39.94860 0.15476 34993 ft 424 kts 228°
2026-04-27 04:19 39.92846 0.12662 35122 ft 425 kts 228°
2026-04-27 04:19 39.90814 0.09830 35148 ft 431 kts 228°
2026-04-27 04:19 39.86682 0.04108 35148 ft 435 kts 228°
2026-04-27 04:20 39.82531 -0.01630 35146 ft 436 kts 228°
2026-04-27 04:20 39.78369 -0.07387 35150 ft 437 kts 228°
2026-04-27 04:21 39.74212 -0.13143 35147 ft 437 kts 228°
2026-04-27 04:21 39.70071 -0.18854 35147 ft 437 kts 228°
2026-04-27 04:22 39.65896 -0.24586 35146 ft 437 kts 228°
2026-04-27 04:22 39.61715 -0.30318 35145 ft 437 kts 228°
2026-04-27 04:23 39.57537 -0.36051 35139 ft 437 kts 228°
2026-04-27 04:23 39.53360 -0.41765 35173 ft 437 kts 228°
2026-04-27 04:24 39.49174 -0.47474 35174 ft 437 kts 229°
2026-04-27 04:24 39.45432 -0.53635 35174 ft 435 kts 234°
2026-04-27 04:25 39.41803 -0.59842 35171 ft 435 kts 234°
2026-04-27 04:25 39.38148 -0.66077 35172 ft 435 kts 234°
2026-04-27 04:26 39.34489 -0.72307 35167 ft 435 kts 234°
2026-04-27 04:26 39.30823 -0.78529 35165 ft 435 kts 234°
2026-04-27 04:27 39.27152 -0.84744 35168 ft 435 kts 234°
2026-04-27 04:27 39.23485 -0.90948 35171 ft 435 kts 234°
2026-04-27 04:28 39.19809 -0.97148 35175 ft 435 kts 234°
2026-04-27 04:28 39.16130 -1.03338 35175 ft 435 kts 234°
2026-04-27 04:29 39.12448 -1.09525 35177 ft 435 kts 234°
2026-04-27 04:29 39.08765 -1.15706 35169 ft 434 kts 234°
2026-04-27 04:30 39.05113 -1.21829 35179 ft 434 kts 234°
2026-04-27 04:30 39.01437 -1.27976 35176 ft 434 kts 233°
2026-04-27 04:31 38.97753 -1.34120 35176 ft 433 kts 233°
2026-04-27 04:31 38.94067 -1.40253 35171 ft 433 kts 233°
2026-04-27 04:32 38.90380 -1.46370 35171 ft 433 kts 233°
2026-04-27 04:32 38.86694 -1.52494 35168 ft 433 kts 233°
2026-04-27 04:33 38.83006 -1.58598 35164 ft 433 kts 233°
2026-04-27 04:33 38.79316 -1.64686 35168 ft 432 kts 233°
2026-04-27 04:34 38.75626 -1.70767 35172 ft 432 kts 233°
2026-04-27 04:34 38.71940 -1.76836 35172 ft 432 kts 233°
2026-04-27 04:35 38.68252 -1.82903 35169 ft 432 kts 233°
2026-04-27 04:35 38.64557 -1.88959 35163 ft 432 kts 233°
2026-04-27 04:36 38.60861 -1.95005 35156 ft 432 kts 234°
2026-04-27 04:36 38.57163 -2.01053 35146 ft 432 kts 233°
2026-04-27 04:37 38.53481 -2.07051 35147 ft 432 kts 233°
2026-04-27 04:37 38.49770 -2.13089 35147 ft 432 kts 233°
2026-04-27 04:38 38.46058 -2.19120 35147 ft 432 kts 233°
2026-04-27 04:38 38.42333 -2.25148 35145 ft 432 kts 233°
2026-04-27 04:39 38.38616 -2.31170 35127 ft 432 kts 236°
2026-04-27 04:39 38.35824 -2.37862 35126 ft 427 kts 254°
2026-04-27 04:40 38.34524 -2.45214 35112 ft 426 kts 260°
2026-04-27 04:40 38.33343 -2.52608 35113 ft 426 kts 260°
2026-04-27 04:41 38.32142 -2.60010 35112 ft 427 kts 260°
2026-04-27 04:41 38.30953 -2.67417 35110 ft 427 kts 260°
2026-04-27 04:42 38.29762 -2.74824 35094 ft 427 kts 259°
2026-04-27 04:42 38.28570 -2.82188 35097 ft 428 kts 259°
2026-04-27 04:43 38.27366 -2.89595 35107 ft 428 kts 259°
2026-04-27 04:43 38.26160 -2.97009 35104 ft 428 kts 259°
2026-04-27 04:44 38.24949 -3.04421 35109 ft 428 kts 259°
2026-04-27 04:44 38.23724 -3.11831 35098 ft 428 kts 259°
2026-04-27 04:45 38.22497 -3.19223 35104 ft 427 kts 259°
2026-04-27 04:45 38.21482 -3.25372 35100 ft 427 kts 259°
2026-04-27 04:46 38.20259 -3.32769 35100 ft 427 kts 259°
2026-04-27 04:46 38.19022 -3.40160 35100 ft 427 kts 259°
2026-04-27 04:47 38.17579 -3.48739 35097 ft 427 kts 259°
2026-04-27 04:47 38.16537 -3.54928 35093 ft 427 kts 259°
2026-04-27 04:48 38.15221 -3.62285 35095 ft 427 kts 253°
2026-04-27 04:48 38.13041 -3.69257 35077 ft 428 kts 249°
2026-04-27 04:49 38.10751 -3.76225 35087 ft 427 kts 249°
2026-04-27 04:49 38.08464 -3.83189 35079 ft 427 kts 249°
2026-04-27 04:50 38.06171 -3.90138 35083 ft 427 kts 249°
2026-04-27 04:50 38.03877 -3.97083 35083 ft 426 kts 249°
2026-04-27 04:51 38.01581 -4.04018 35083 ft 426 kts 249°
2026-04-27 04:51 37.99281 -4.10938 35083 ft 426 kts 248°
2026-04-27 04:52 37.96976 -4.17860 35082 ft 426 kts 248°
2026-04-27 04:52 37.94670 -4.24776 35085 ft 426 kts 248°
2026-04-27 04:53 37.92360 -4.31685 35080 ft 426 kts 248°
2026-04-27 04:53 37.90061 -4.38551 35080 ft 426 kts 248°
2026-04-27 04:54 37.87742 -4.45452 35078 ft 426 kts 248°
2026-04-27 04:54 37.85425 -4.52354 35071 ft 426 kts 248°
2026-04-27 04:55 37.83109 -4.59247 35071 ft 425 kts 248°
2026-04-27 04:55 37.80784 -4.66132 35075 ft 425 kts 248°
2026-04-27 04:56 37.78455 -4.72991 35067 ft 425 kts 248°
2026-04-27 04:56 37.76115 -4.79854 35066 ft 425 kts 248°
2026-04-27 04:57 37.73778 -4.86701 35068 ft 425 kts 248°
2026-04-27 04:57 37.71436 -4.93552 35067 ft 425 kts 248°
2026-04-27 04:58 37.69110 -5.00341 35071 ft 424 kts 247°
2026-04-27 04:58 37.66757 -5.07188 35068 ft 424 kts 247°
2026-04-27 04:59 37.64406 -5.14018 35069 ft 424 kts 247°
2026-04-27 04:59 37.62048 -5.20851 35061 ft 424 kts 247°
2026-04-27 05:00 37.59686 -5.27675 35062 ft 424 kts 247°
2026-04-27 05:00 37.57329 -5.34500 35055 ft 424 kts 247°
2026-04-27 05:01 37.54968 -5.41312 35053 ft 425 kts 246°
2026-04-27 05:01 37.52605 -5.48084 35052 ft 425 kts 246°
2026-04-27 05:02 37.50228 -5.54892 35051 ft 425 kts 246°
2026-04-27 05:03 37.46658 -5.65118 35022 ft 425 kts 246°
2026-04-27 05:03 37.44279 -5.71923 35017 ft 425 kts 246°
2026-04-27 05:04 37.42283 -5.78921 35008 ft 425 kts 257°
2026-04-27 05:04 37.41012 -5.86141 35007 ft 426 kts 257°
2026-04-27 05:05 37.39717 -5.93409 35008 ft 426 kts 257°
2026-04-27 05:05 37.38416 -6.00667 35009 ft 426 kts 257°
2026-04-27 05:06 37.37113 -6.07935 35016 ft 426 kts 257°
2026-04-27 05:06 37.35808 -6.15200 35021 ft 426 kts 256°
2026-04-27 05:07 37.34498 -6.22477 35022 ft 427 kts 256°
2026-04-27 05:07 37.33176 -6.29753 35028 ft 427 kts 256°
2026-04-27 05:08 37.31851 -6.37027 35033 ft 427 kts 256°
2026-04-27 05:08 37.30522 -6.44296 35026 ft 427 kts 256°
2026-04-27 05:09 37.29184 -6.51571 35017 ft 428 kts 256°
2026-04-27 05:09 37.27846 -6.58857 35014 ft 429 kts 256°
2026-04-27 05:10 37.26503 -6.66151 35016 ft 429 kts 256°
2026-04-27 05:10 37.25146 -6.73447 35016 ft 429 kts 256°
2026-04-27 05:11 37.23797 -6.80703 35025 ft 429 kts 256°
2026-04-27 05:11 37.22437 -6.88001 35026 ft 430 kts 255°
2026-04-27 05:12 37.21069 -6.95298 35025 ft 430 kts 255°
2026-04-27 05:12 37.19687 -7.02599 35025 ft 430 kts 255°
2026-04-27 05:13 37.18310 -7.09902 35023 ft 430 kts 255°
2026-04-27 05:13 37.16925 -7.17200 35025 ft 430 kts 255°
2026-04-27 05:14 37.15526 -7.24505 35030 ft 430 kts 255°
2026-04-27 05:14 37.14138 -7.31804 35022 ft 431 kts 255°
2026-04-27 05:15 37.12520 -7.39005 35027 ft 429 kts 245°
2026-04-27 05:15 37.09796 -7.45634 35028 ft 428 kts 240°
2026-04-27 05:16 37.07019 -7.52172 35021 ft 428 kts 240°
2026-04-27 05:16 37.04220 -7.58754 35027 ft 428 kts 240°
2026-04-27 05:17 37.01421 -7.65337 35027 ft 428 kts 240°
2026-04-27 05:17 36.98618 -7.71915 35024 ft 428 kts 240°
2026-04-27 05:18 36.95811 -7.78488 35013 ft 429 kts 240°
2026-04-27 05:18 36.92995 -7.85061 35015 ft 429 kts 240°
2026-04-27 05:19 36.90167 -7.91634 35014 ft 429 kts 240°
2026-04-27 05:19 36.87343 -7.98198 35012 ft 429 kts 240°
2026-04-27 05:20 36.84517 -8.04757 35014 ft 429 kts 240°
2026-04-27 05:20 36.81689 -8.11319 35015 ft 429 kts 240°
2026-04-27 05:21 36.78875 -8.17835 35015 ft 429 kts 240°
2026-04-27 05:21 36.76035 -8.24386 35014 ft 429 kts 240°
2026-04-27 05:22 36.73186 -8.30932 35009 ft 429 kts 240°
2026-04-27 05:22 36.70334 -8.37473 35019 ft 429 kts 239°
2026-04-27 05:23 36.67490 -8.44001 35012 ft 429 kts 239°
2026-04-27 05:23 36.64635 -8.50532 35012 ft 429 kts 239°
2026-04-27 05:24 36.61776 -8.57064 35011 ft 430 kts 239°
2026-04-27 05:24 36.58905 -8.63593 35009 ft 430 kts 239°
2026-04-27 05:25 36.56057 -8.70072 35011 ft 430 kts 239°
2026-04-27 05:25 36.53194 -8.76598 35017 ft 430 kts 239°
2026-04-27 05:26 36.50316 -8.83118 35014 ft 430 kts 239°
2026-04-27 05:26 36.47423 -8.89633 35013 ft 430 kts 239°
2026-04-27 05:27 36.44537 -8.96148 35013 ft 430 kts 239°
2026-04-27 05:27 36.41649 -9.02656 35011 ft 430 kts 239°
2026-04-27 05:28 36.38752 -9.09149 35012 ft 430 kts 238°
2026-04-27 05:28 36.35858 -9.15635 35006 ft 430 kts 239°
2026-04-27 05:29 36.32960 -9.22122 35002 ft 430 kts 239°
2026-04-27 05:29 36.30062 -9.28609 35004 ft 430 kts 238°
2026-04-27 05:30 36.27158 -9.35088 34997 ft 430 kts 238°
2026-04-27 05:30 36.24244 -9.41569 34999 ft 430 kts 238°
2026-04-27 05:31 36.21326 -9.48047 35012 ft 431 kts 239°
2026-04-27 05:31 36.18424 -9.54481 35010 ft 431 kts 239°
2026-04-27 05:32 36.15497 -9.60953 35005 ft 431 kts 238°
2026-04-27 05:32 36.12563 -9.67427 35003 ft 431 kts 239°
2026-04-27 05:33 36.09626 -9.73901 35005 ft 431 kts 238°
2026-04-27 05:33 36.06690 -9.80362 35004 ft 431 kts 239°
2026-04-27 05:34 36.03756 -9.86812 35011 ft 431 kts 239°
2026-04-27 05:34 36.00814 -9.93259 35006 ft 431 kts 238°
2026-04-27 05:35 35.97830 -9.99667 34992 ft 430 kts 233°
2026-04-27 05:35 35.93831 -10.04985 34993 ft 425 kts 216°
2026-04-27 05:36 35.89114 -10.09361 34989 ft 425 kts 216°
2026-04-27 05:36 35.84387 -10.13749 34991 ft 425 kts 215°
2026-04-27 05:37 35.79661 -10.18132 34997 ft 425 kts 216°
2026-04-27 05:37 35.74933 -10.22506 35013 ft 425 kts 216°
2026-04-27 05:38 35.70216 -10.26873 35006 ft 424 kts 215°
2026-04-27 05:38 35.65500 -10.31225 35012 ft 424 kts 216°
2026-04-27 05:39 35.60781 -10.35560 35012 ft 423 kts 216°
2026-04-27 05:39 35.56071 -10.39894 35002 ft 423 kts 215°
2026-04-27 05:40 35.51393 -10.44200 35005 ft 423 kts 215°
2026-04-27 05:40 35.46680 -10.48524 35002 ft 423 kts 215°
2026-04-27 05:41 35.41961 -10.52831 34999 ft 423 kts 216°
2026-04-27 05:41 35.37241 -10.57139 35001 ft 423 kts 216°
2026-04-27 05:42 35.33326 -10.60727 35010 ft 422 kts 216°
2026-04-27 05:42 35.28623 -10.65034 35007 ft 422 kts 216°
2026-04-27 05:43 35.23918 -10.69318 35003 ft 421 kts 216°
2026-04-27 05:43 35.19216 -10.73584 35013 ft 421 kts 215°
2026-04-27 05:44 35.14516 -10.77841 35005 ft 420 kts 215°
2026-04-27 05:44 35.09827 -10.82096 35003 ft 420 kts 215°
2026-04-27 05:45 35.05137 -10.86345 35002 ft 420 kts 216°
2026-04-27 05:45 35.00447 -10.90589 35003 ft 420 kts 216°
2026-04-27 05:46 34.95782 -10.94802 35016 ft 419 kts 216°
2026-04-27 05:46 34.91091 -10.99032 35005 ft 419 kts 216°
2026-04-27 05:47 34.86401 -11.03257 35011 ft 419 kts 215°
2026-04-27 05:47 34.81713 -11.07472 35009 ft 419 kts 215°
2026-04-27 05:48 34.77016 -11.11681 35006 ft 419 kts 215°
2026-04-27 05:48 34.72320 -11.15885 35003 ft 419 kts 215°
2026-04-27 05:49 34.67626 -11.20084 35004 ft 419 kts 215°
2026-04-27 05:49 34.62928 -11.24274 35004 ft 419 kts 215°
2026-04-27 05:50 34.58236 -11.28471 35001 ft 419 kts 215°
2026-04-27 05:50 34.53553 -11.32682 35019 ft 419 kts 215°
2026-04-27 05:51 34.48860 -11.36903 35017 ft 420 kts 215°
2026-04-27 05:51 34.44197 -11.41087 35012 ft 420 kts 215°
2026-04-27 05:52 34.39490 -11.45288 35016 ft 420 kts 215°
2026-04-27 05:52 34.34781 -11.49485 35017 ft 420 kts 215°
2026-04-27 05:53 34.30074 -11.53678 35015 ft 420 kts 215°
2026-04-27 05:53 34.25367 -11.57858 35011 ft 420 kts 215°
2026-04-27 05:54 34.20662 -11.62040 35017 ft 420 kts 215°
2026-04-27 05:54 34.15956 -11.66222 35016 ft 420 kts 215°
2026-04-27 05:55 34.11244 -11.70394 35015 ft 420 kts 215°
2026-04-27 05:55 34.06541 -11.74555 35011 ft 420 kts 215°
2026-04-27 05:56 34.01857 -11.78682 35017 ft 419 kts 215°
2026-04-27 05:56 33.97151 -11.82830 35015 ft 419 kts 215°
2026-04-27 05:57 33.92448 -11.86980 35010 ft 419 kts 215°
2026-04-27 05:57 33.87745 -11.91123 35009 ft 419 kts 215°
2026-04-27 05:58 33.83030 -11.95261 35011 ft 419 kts 215°
2026-04-27 05:58 33.78311 -11.99392 35012 ft 420 kts 215°
2026-04-27 05:59 33.73584 -12.03520 35014 ft 420 kts 215°
2026-04-27 05:59 33.68865 -12.07659 35023 ft 420 kts 215°
2026-04-27 06:00 33.61803 -12.13845 35020 ft 421 kts 215°
2026-04-27 06:00 33.57067 -12.17963 35021 ft 421 kts 214°
2026-04-27 06:01 33.52323 -12.22077 35032 ft 421 kts 215°
2026-04-27 06:01 33.47583 -12.26196 35030 ft 421 kts 215°
2026-04-27 06:02 33.42845 -12.30309 35030 ft 421 kts 215°
2026-04-27 06:02 33.38107 -12.34421 35035 ft 421 kts 215°
2026-04-27 06:03 33.33373 -12.38523 35035 ft 420 kts 214°
2026-04-27 06:03 33.28629 -12.42622 35043 ft 420 kts 214°
2026-04-27 06:04 33.23893 -12.46710 35031 ft 420 kts 214°
2026-04-27 06:04 33.19178 -12.50777 35041 ft 420 kts 214°
2026-04-27 06:05 33.14437 -12.54860 35032 ft 420 kts 214°
2026-04-27 06:05 33.09691 -12.58939 35032 ft 420 kts 214°
2026-04-27 06:06 33.04943 -12.63010 35039 ft 420 kts 214°
2026-04-27 06:06 33.00192 -12.67080 35035 ft 420 kts 214°
2026-04-27 06:07 32.95453 -12.71149 35037 ft 420 kts 214°
2026-04-27 06:07 32.90707 -12.75210 35038 ft 420 kts 214°
2026-04-27 06:08 32.85965 -12.79258 35044 ft 420 kts 214°
2026-04-27 06:08 32.81206 -12.83304 35037 ft 420 kts 214°
2026-04-27 06:09 32.76476 -12.87312 35038 ft 420 kts 214°
2026-04-27 06:09 32.71711 -12.91340 35040 ft 421 kts 214°
2026-04-27 06:10 32.66942 -12.95365 35038 ft 421 kts 214°
2026-04-27 06:10 32.62171 -12.99399 35038 ft 421 kts 214°
2026-04-27 06:11 32.57401 -13.03426 35040 ft 421 kts 214°
2026-04-27 06:11 32.52627 -13.07446 35042 ft 421 kts 214°
2026-04-27 06:12 32.47857 -13.11461 35042 ft 421 kts 214°
2026-04-27 06:12 32.43079 -13.15467 35044 ft 421 kts 214°
2026-04-27 06:13 32.38332 -13.19452 35038 ft 421 kts 214°
2026-04-27 06:13 32.33547 -13.23456 35037 ft 422 kts 213°
2026-04-27 06:14 32.28758 -13.27457 35042 ft 422 kts 214°
2026-04-27 06:14 32.23972 -13.31466 35042 ft 422 kts 214°
2026-04-27 06:15 32.19176 -13.35471 35052 ft 422 kts 214°
2026-04-27 06:15 32.14366 -13.39468 35052 ft 422 kts 214°
2026-04-27 06:16 32.09568 -13.43462 35047 ft 422 kts 214°
2026-04-27 06:16 32.04793 -13.47432 35051 ft 422 kts 214°
2026-04-27 06:17 31.99986 -13.51416 35055 ft 423 kts 214°
2026-04-27 06:17 31.95173 -13.55403 35047 ft 423 kts 214°
2026-04-27 06:18 31.90361 -13.59390 35053 ft 423 kts 214°
2026-04-27 06:18 31.85544 -13.63366 35049 ft 423 kts 214°
2026-04-27 06:19 31.80729 -13.67330 35045 ft 423 kts 214°
2026-04-27 06:19 31.75906 -13.71302 35043 ft 423 kts 214°
2026-04-27 06:20 31.71095 -13.75276 35050 ft 423 kts 214°
2026-04-27 06:20 31.66302 -13.79214 35054 ft 423 kts 214°
2026-04-27 06:21 31.61484 -13.83167 35054 ft 423 kts 214°
2026-04-27 06:21 31.56667 -13.87121 35058 ft 423 kts 215°
2026-04-27 06:22 31.51845 -13.91082 35044 ft 423 kts 215°
2026-04-27 06:22 31.47019 -13.95033 35043 ft 423 kts 215°
2026-04-27 06:23 31.42190 -13.98971 35038 ft 423 kts 215°
2026-04-27 06:23 31.37353 -14.02916 35045 ft 424 kts 215°
2026-04-27 06:24 31.32511 -14.06863 35046 ft 424 kts 215°
2026-04-27 06:24 31.27705 -14.10790 35046 ft 424 kts 214°
2026-04-27 06:25 31.22881 -14.14746 35047 ft 424 kts 214°
2026-04-27 06:25 31.18042 -14.18708 35050 ft 424 kts 214°
2026-04-27 06:26 31.13207 -14.22658 35056 ft 425 kts 216°
2026-04-27 06:26 31.08352 -14.26611 35036 ft 426 kts 215°
2026-04-27 06:27 31.03485 -14.30569 35046 ft 427 kts 215°
2026-04-27 06:27 30.98608 -14.34539 35046 ft 428 kts 215°
2026-04-27 06:28 30.93722 -14.38518 35056 ft 428 kts 216°
2026-04-27 06:28 30.88831 -14.42488 35050 ft 429 kts 215°
2026-04-27 06:29 30.83961 -14.46422 35060 ft 429 kts 215°
2026-04-27 06:29 30.79054 -14.50375 35066 ft 429 kts 215°
2026-04-27 06:30 30.74140 -14.54328 35065 ft 429 kts 215°
2026-04-27 06:30 30.69223 -14.58281 35061 ft 430 kts 216°
2026-04-27 06:31 30.64297 -14.62237 35060 ft 431 kts 214°
2026-04-27 06:31 30.59357 -14.66193 35061 ft 432 kts 215°
2026-04-27 06:32 30.54407 -14.70158 35057 ft 433 kts 216°
2026-04-27 06:32 30.49450 -14.74123 35064 ft 433 kts 215°
2026-04-27 06:33 30.44493 -14.78083 35068 ft 433 kts 215°
2026-04-27 06:33 30.39561 -14.82017 35065 ft 433 kts 215°
2026-04-27 06:34 30.34601 -14.85976 35069 ft 433 kts 215°
2026-04-27 06:34 30.29629 -14.89924 35070 ft 434 kts 215°
2026-04-27 06:35 30.24652 -14.93872 35077 ft 434 kts 215°
2026-04-27 06:35 30.19680 -14.97827 35069 ft 434 kts 216°
2026-04-27 06:36 30.14704 -15.01781 35065 ft 434 kts 216°
2026-04-27 06:36 30.09721 -15.05732 35068 ft 434 kts 216°
2026-04-27 06:37 30.04772 -15.09646 35068 ft 434 kts 216°
2026-04-27 06:37 29.99786 -15.13579 35067 ft 434 kts 216°
2026-04-27 06:38 29.94794 -15.17521 35066 ft 434 kts 216°
2026-04-27 06:38 29.89807 -15.21456 35063 ft 434 kts 216°
2026-04-27 06:39 29.84818 -15.25386 35072 ft 434 kts 215°
2026-04-27 06:39 29.79848 -15.29291 34756 ft 429 kts 215°
2026-04-27 06:40 29.77383 -15.31218 34517 ft 427 kts 214°
2026-04-27 06:40 29.75760 -15.32487 34363 ft 425 kts 215°
2026-04-27 06:40 29.73323 -15.34397 33922 ft 422 kts 215°
2026-04-27 06:40 29.70909 -15.36288 33436 ft 419 kts 215°
2026-04-27 06:41 29.67728 -15.38776 32827 ft 414 kts 215°
2026-04-27 06:41 29.65358 -15.40632 32358 ft 411 kts 216°
2026-04-27 06:41 29.62999 -15.42486 31905 ft 409 kts 215°
2026-04-27 06:41 29.60655 -15.44322 31459 ft 406 kts 215°
2026-04-27 06:42 29.58322 -15.46141 31009 ft 404 kts 215°
2026-04-27 06:42 29.56787 -15.47336 30720 ft 403 kts 214°
2026-04-27 06:42 29.54469 -15.49138 30272 ft 401 kts 216°
2026-04-27 06:42 29.52166 -15.50928 29810 ft 399 kts 214°
2026-04-27 06:43 29.49882 -15.52706 29394 ft 395 kts 215°
2026-04-27 06:43 29.47617 -15.54475 28983 ft 392 kts 216°
2026-04-27 06:43 29.45375 -15.56229 28586 ft 389 kts 216°
2026-04-27 06:43 29.43146 -15.57969 28183 ft 386 kts 215°
2026-04-27 06:44 29.40934 -15.59692 27790 ft 383 kts 215°
2026-04-27 06:44 29.38737 -15.61404 27401 ft 380 kts 214°
2026-04-27 06:44 29.36558 -15.63095 27011 ft 377 kts 215°
2026-04-27 06:44 29.34390 -15.64778 26622 ft 374 kts 215°
2026-04-27 06:45 29.32247 -15.66444 26215 ft 372 kts 216°
2026-04-27 06:45 29.30109 -15.68107 25818 ft 370 kts 215°
2026-04-27 06:45 29.27984 -15.69755 25410 ft 368 kts 216°
2026-04-27 06:45 29.25872 -15.71390 25006 ft 366 kts 216°
2026-04-27 06:46 29.23764 -15.73020 24582 ft 365 kts 214°
2026-04-27 06:46 29.21669 -15.74640 24155 ft 364 kts 216°
2026-04-27 06:46 29.19572 -15.76264 23724 ft 363 kts 216°
2026-04-27 06:46 29.17484 -15.77881 23250 ft 362 kts 215°
2026-04-27 06:47 29.15416 -15.79484 22823 ft 359 kts 215°
2026-04-27 06:47 29.13379 -15.81061 22390 ft 356 kts 216°
2026-04-27 06:47 29.11335 -15.82639 21961 ft 354 kts 215°
2026-04-27 06:47 29.09297 -15.84210 21542 ft 352 kts 216°
2026-04-27 06:48 29.07279 -15.85766 21112 ft 350 kts 216°
2026-04-27 06:48 29.05266 -15.87321 20691 ft 348 kts 216°
2026-04-27 06:48 29.03262 -15.88867 20261 ft 346 kts 216°
2026-04-27 06:48 29.01267 -15.90404 19835 ft 345 kts 215°
2026-04-27 06:49 28.99280 -15.91934 19421 ft 344 kts 216°
2026-04-27 06:49 28.97303 -15.93455 19002 ft 343 kts 215°
2026-04-27 06:49 28.95326 -15.94978 18580 ft 342 kts 215°
2026-04-27 06:49 28.93358 -15.96496 18132 ft 341 kts 216°
2026-04-27 06:50 28.91393 -15.98008 17703 ft 339 kts 216°
2026-04-27 06:50 28.89442 -15.99505 17301 ft 338 kts 216°
2026-04-27 06:50 28.87499 -16.00997 16872 ft 336 kts 215°
2026-04-27 06:50 28.85562 -16.02485 16456 ft 335 kts 214°
2026-04-27 06:51 28.83637 -16.03965 16039 ft 334 kts 216°
2026-04-27 06:51 28.81713 -16.05443 15648 ft 334 kts 216°
2026-04-27 06:51 28.79785 -16.06923 15243 ft 333 kts 215°
2026-04-27 06:51 28.77864 -16.08397 14839 ft 333 kts 216°
2026-04-27 06:52 28.75941 -16.09872 14429 ft 333 kts 215°
2026-04-27 06:52 28.74042 -16.11325 14026 ft 334 kts 214°
2026-04-27 06:52 28.72112 -16.12799 13602 ft 334 kts 215°
2026-04-27 06:52 28.70184 -16.14270 13187 ft 333 kts 214°
2026-04-27 06:53 28.68261 -16.15737 12786 ft 332 kts 215°
2026-04-27 06:53 28.66349 -16.17195 12383 ft 331 kts 214°
2026-04-27 06:53 28.64435 -16.18656 11969 ft 331 kts 214°
2026-04-27 06:53 28.62526 -16.20114 11561 ft 330 kts 215°
2026-04-27 06:54 28.60619 -16.21572 11176 ft 330 kts 215°
2026-04-27 06:54 28.58695 -16.22988 10773 ft 330 kts 207°
2026-04-27 06:54 28.56532 -16.23679 10557 ft 317 kts 182°
2026-04-27 06:54 28.54401 -16.23344 10135 ft 307 kts 157°
2026-04-27 06:55 28.53166 -16.22601 9747 ft 303 kts 140°
2026-04-27 06:55 28.52622 -16.22081 9552 ft 300 kts 132°
2026-04-27 06:56 28.49367 -16.13928 8001 ft 260 kts 108°
2026-04-27 06:56 28.48738 -16.12076 7910 ft 242 kts 108°
2026-04-27 06:56 28.48151 -16.10351 7793 ft 226 kts 109°
2026-04-27 06:56 28.47289 -16.08907 7701 ft 218 kts 136°
2026-04-27 06:57 28.45992 -16.08150 7552 ft 208 kts 165°
2026-04-27 06:57 28.44554 -16.08169 7178 ft 208 kts 196°
2026-04-27 06:57 28.43199 -16.08742 6842 ft 209 kts 201°
2026-04-27 06:57 28.41949 -16.09543 6430 ft 207 kts 226°
2026-04-27 06:58 28.41186 -16.10906 5970 ft 203 kts 257°
2026-04-27 06:58 28.41479 -16.13780 5492 ft 179 kts 296°
2026-04-27 06:58 28.41919 -16.15092 5256 ft 176 kts 296°
2026-04-27 06:59 28.42350 -16.16381 5029 ft 173 kts 295°
2026-04-27 06:59 28.42775 -16.17652 4809 ft 171 kts 295°
2026-04-27 06:59 28.43192 -16.18902 4578 ft 168 kts 296°
2026-04-27 06:59 28.43604 -16.20137 4348 ft 166 kts 296°
2026-04-27 07:00 28.44009 -16.21353 4126 ft 164 kts 296°
2026-04-27 07:00 28.44405 -16.22543 3920 ft 156 kts 297°
2026-04-27 07:00 28.44777 -16.23664 3714 ft 148 kts 297°
2026-04-27 07:00 28.45140 -16.24751 3528 ft 147 kts 297°
2026-04-27 07:01 28.45500 -16.25831 3337 ft 145 kts 298°
2026-04-27 07:01 28.45858 -16.26906 3137 ft 145 kts 299°
2026-04-27 07:01 28.46210 -16.27966 2937 ft 143 kts 298°
2026-04-27 07:01 28.46558 -16.29013 2741 ft 142 kts 297°
2026-04-27 07:02 28.46906 -16.30059 2534 ft 142 kts 296°
2026-04-27 07:02 28.47251 -16.31096 2360 ft 138 kts 294°
2026-04-27 07:02 28.47583 -16.32090 2149 ft 136 kts 291°
2026-04-27 07:02 28.47904 -16.33077 2035 ft 123 kts 293°
2026-04-27 07:03 28.48158 -16.33823 2044 ft 77 kts 290°
2026-04-27 07:03 28.48299 -16.34252 2057 ft 49 kts 290°
2026-04-27 07:03 28.48413 -16.34595 2070 ft 45 kts 290°
2026-04-27 07:03 28.48520 -16.34918 2086 ft 40 kts 291°
2026-04-27 07:04 28.48605 -16.35166 2086 ft 23 kts 299°
2026-04-27 07:04 28.48675 -16.35267 2083 ft 11 kts 307°
2026-04-27 07:04 28.48719 -16.35323 2080 ft 10 kts 337°
2026-04-27 07:04 28.48754 -16.35278 2079 ft 10 kts 99°
2026-04-27 07:05 28.48735 -16.35219 2080 ft 7 kts 111°
2026-04-27 07:05 28.48717 -16.35163 2080 ft 8 kts 110°
2026-04-27 07:05 28.48696 -16.35100 2082 ft 9 kts 110°
2026-04-27 07:05 28.48670 -16.35024 2083 ft 11 kts 111°
2026-04-27 07:06 28.48642 -16.34939 2084 ft 12 kts 110°
2026-04-27 07:06 28.48615 -16.34854 2081 ft 11 kts 110°
2026-04-27 07:06 28.48614 -16.34798 2078 ft 8 kts 41°
2026-04-27 07:06 28.48655 -16.34765 2075 ft 7 kts 35°
2026-04-27 07:07 28.48681 -16.34744 2074 ft 4 kts 37°
2026-04-27 07:07 28.48694 -16.34733 2073 ft 1 kts 36°